This demonstration page uses our WeatherBlox Daily Observations layout. Learn more.

Left ArrowRight Arrow

41.55636, -103.73856

Hourly Observations for September 29, 2022

Temp ( °F °C ) Dew Point ( °F °C ) Humidity (%) Winds ( mph kmh ) Pressure ( in mb ) Visibility ( mi km ) Precip ( " mm )
12:56 am 00:56 Clear 64 17.9 40 4.5 41 41 SW 23 37 29.99 1016 10 16 0.00 0.00
1:56 am 01:56 Cloudy 63 17.4 40 4.7 43 43 SW 23 37 29.97 1015 10 16 0.00 0.00
2:56 am 02:56 Clear 60 15.6 40 4.6 48 48 SW 18 30 29.97 1015 10 16 0.00 0.00
3:56 am 03:56 Partly Cloudy 59 15.2 40 4.6 49 49 SW 15 24 29.97 1015 10 16 0.00 0.00
4:56 am 04:56 Cloudy 60 15.4 39 4.1 47 47 WSW 8 13 29.97 1015 10 16 0.00 0.00
5:56 am 05:56 Mostly Cloudy 56 13.5 38 3.6 51 51 WSW 7 11 29.98 1015 10 16 0.00 0.00
6:56 am 06:56 Mostly Cloudy 54 12.2 39 3.7 56 56 WSW 6 9 30.00 1016 10 16 0.00 0.00
7:56 am 07:56 Mostly Cloudy 60 15.5 38 3.3 44 44 Calm 30.00 1016 10 16 0.00 0.00
8:56 am 08:56 Sunny 66 19.1 36 2.4 33 33 W 3 6 30.00 1016 10 16 0.00 0.00
9:56 am 09:56 Sunny 77 25.1 37 2.5 23 23 NNW 8 13 29.97 1015 10 16 0.00 0.00
10:56 am 10:56 Sunny 81 27.3 35 1.6 19 19 NNW 10 17 29.96 1015 10 16 0.00 0.00
11:56 am 11:56 Partly Cloudy 83 28.1 35 1.5 18 18 NNW 9 15 29.93 1014 10 16 0.00 0.00
12:56 pm 12:56 Cloudy 75 23.9 42 5.3 30 30 W 33 54 29.96 1015 8 13 0.00 0.00
1:56 pm 13:56 Sunny 81 27.3 36 2.4 20 20 NW 5 7 29.91 1013 10 16 0.01 0.13
2:56 pm 14:56 Mostly Sunny 82 27.9 31 -0.3 16 16 NNW 10 17 29.89 1012 10 16 0.00 0.00
3:56 pm 15:56 Cloudy with Light Rain 67 19.4 51 10.4 56 56 S 12 19 29.95 1014 10 16 0.02 0.51
4:56 pm 16:56 Partly Cloudy 74 23.1 44 6.8 35 35 WSW 7 11 29.89 1012 10 16 0.01 0.13
6:56 pm 18:56 Clear 67 19.5 44 6.9 44 44 S 17 28 29.91 1013 10 16 0.00 0.00
7:56 pm 19:56 Mostly Cloudy 66 18.7 45 7.2 47 47 NW 15 24 29.94 1014 10 16 0.00 0.00
8:56 pm 20:56 Mostly Cloudy 64 17.7 45 7.4 51 51 SW 10 17 29.91 1013 10 16 0.00 0.00
9:56 pm 21:56 Clear 62 16.9 44 6.4 50 50 S 12 19 29.88 1012 10 16 0.00 0.00
10:56 pm 22:56 Mostly Cloudy 60 15.4 43 6.1 54 54 W 10 17 29.88 1012 10 16 0.00 0.00
11:56 pm 23:56 Clear 61 16.3 42 5.3 48 48 SW 14 22 29.88 1012 10 16 0.00 0.00

Powered by AerisWeather